Location: Norton
(51.3000°N, 0.8167°E)
Time: 12:54:56
(UTC+00:00)

USA 308 - Pass Details

Date: 03 March 2021
Orbit: 568 x 576 km, 54.0° (Epoch: 16 April)

Event Time Altitude Azimuth Distance (km) Brightness Sun altitude
Rises 18:25:25 0° 262° (W) 2,776 8.7 -7.7°
Reaches altitude 10° 18:27:41 10° 265° (W) 1,877 7.3 -8.1°
Maximum altitude 18:31:56 67° 348° (NNW) 624 3.1 -8.7°
Enters shadow 18:36:00 11° 72° (ENE) 1,802 4.8 -9.4°
